Regional Weather Roundup
Issued by NWS

Home | Current Version | Previous Version | Graphics & Text | Print | Product List | Glossary On
Versions: 1 2 3 4 5 6 7 8 9 10 11 12 13 14 15 16 17 18 19 20 21 22 23 24 25 26 27 28 29 30 31 32 33 34 35 36 37 38 39 40 41 42 43 44 45 46 47 48 49 50
000
ASUS43 KMPX 280210
RWRMN
WEATHER ROUNDUP FOR MINNESOTA
NATIONAL WEATHER SERVICE TWIN CITIES/CHANHASSEN MN
900 PM CDT THU AUG 27 2015


NOTE: "FAIR" INDICATES FEW OR NO CLOUDS BELOW 12,000 FEET WITH NO
SIGNIFICANT WEATHER AND/OR OBSTRUCTIONS TO VISIBILITY. N/A MEANS
CURRENT SKY AND/OR WEATHER CONDITIONS ARE NOT AVAILABLE.

MNZ060>063-068>070-280300-
   Twin Cities Metro

CITY           SKY/WX    TMP DP  RH WIND       PRES   REMARKS
TWIN CITIES    CLOUDY    68  59  73 SE8       30.01S
ST PAUL        MOCLDY    67  60  78 SE8       30.01S
CRYSTAL        MOCLDY    70  58  65 S8        29.99S
BLAINE         PTCLDY    70  59  68 S7        30.00S
LAKEVILLE      CLOUDY    63  61  94 SE3       30.02S
EDEN PRAIRIE   CLOUDY    67  59  75 SE8       29.99F
SOUTH ST PAUL  MOCLDY    68  59  73 S6        30.01S
LAKE ELMO      FAIR      66  61  82 S6        30.02S
$$
MNZ001>005-007-008-013>017-022>024-027-028-280300-
   Northwest Minnesota

CITY           SKY/WX    TMP DP  RH WIND       PRES   REMARKS
BEMIDJI        CLEAR     67  63  88 S3        29.94S
HALLOCK        CLEAR     66  61  82 SE6       29.88S
ROSEAU         CLEAR     64  61  88 CALM      29.91S
WARROAD        CLEAR     64  61  88 CALM      29.91S
THIEF RVR FALL CLEAR    N/A N/A N/A CALM      29.91S
CROOKSTON      CLEAR     66  63  88 S3        29.91S
FOSSTON        CLEAR     63  61  94 S5        29.94S
DETROIT LAKES  MOCLDY    68  64  88 CALM      29.95S
MOORHEAD       PTCLDY    72  66  83 SE6       29.92R
PARK RAPIDS    CLOUDY    71  64  78 S7        29.96R
MAHNOMEN       FAIR      68  65  91 CALM      29.94R
$$
MNZ006-009>011-018-025>026-280300-
   North Central Minnesota

CITY           SKY/WX    TMP DP  RH WIND       PRES   REMARKS
BAUDETTE       CLEAR     66  61  84 S5        29.92S
FLAG ISLAND    CLEAR     68  63  83 CALM      29.89S HAZE
INTL FALLS     MOCLDY    63  59  87 CALM      29.94S
WASKISH        CLEAR     66  63  88 CALM      29.93F
BIG FORK       CLOUDY    70  63  78 S3        29.96F
LONGVILLE      CLOUDY    66  64  94 SE3       29.97R
GRAND RAPIDS     N/A     66  61  82 S7        29.98R
CRANE LAKE     CLEAR     57  57 100 CALM      29.98S
ORR            PTCLDY    64  57  77 CALM      29.95S
COOK           MOCLDY    66  59  77 S6        29.98S
WALKER         MOCLDY    67  64  91 SE3       29.95S
$$
MNZ012-019>021-037-280300-
   Northeast Minnesota

CITY           SKY/WX    TMP DP  RH WIND       PRES   REMARKS
DULUTH         PTCLDY    58  53  84 E5        30.01R
ELY            CLOUDY    66  57  72 S6        29.99F
HIBBING        CLOUDY    68  60  75 SE5       29.99R
EVELETH        CLOUDY    64  59  82 S3        30.00F
DULUTH HARBOR  MOCLDY    57  54  88 E6        30.01S
TWO HARBORS    CLOUDY    64  57  77 CALM      30.00R
SILVER BAY     MOCLDY    61  54  77 CALM      30.00S
GRAND MARAIS     N/A     56  51  84 CALM      30.02R
G MARAIS ARPRT MOCLDY    52  48  87 S3        30.05R
$$
MNZ029>031-032-039>041-046>048-054>057-064-280300-
   West Central Minnesota

CITY           SKY/WX    TMP DP  RH WIND       PRES   REMARKS
FERGUS FALLS   CLOUDY    70  64  83 SE3       29.93R
WHEATON        CLOUDY    64  63  94 SE6       29.94S
MORRIS         CLOUDY    68  66  94 SE5       29.94S
ALEXANDRIA     CLOUDY    69  66  90 S8        29.98R
ELBOW LAKE     FAIR      68  66  93 SE6       29.94S
WADENA         CLOUDY    66  63  88 S3        29.96R
GLENWOOD       CLOUDY    66  64  94 SE6       29.98S
APPLETON       CLOUDY    70  64  83 SE7       29.93F
BENSON         CLOUDY    66  63  88 S7        29.95F
ORTONVILLE     CLOUDY    70  66  88 SE5       29.93S
MADISON        CLOUDY    66  64  94 SE3       29.94S
WILLMAR        FAIR      66  64  94 SE3       29.98S
$$
MNZ033>034-036-042>043-049>051-058-059-280300-
   Central Minnesota

CITY           SKY/WX    TMP DP  RH WIND       PRES   REMARKS
ST CLOUD       MOCLDY    66  61  84 S9        29.99R
SAUK CENTRE    FAIR      65  63  93 S6        29.98S
PAYNESVILLE    CLOUDY    66  62  87 E3        29.98F
AITKIN         CLOUDY    70  61  73 CALM      29.97S
PINE RIVER     CLOUDY    66  63  88 CALM      30.00R
BRAINERD       CLOUDY    68  63  84 SE5       29.98R
STAPLES        CLOUDY    66  63  88 CALM      29.97R
LONG PRAIRIE   FAIR      64  63  94 SE3       29.98R
LITTLE FALLS   CLOUDY    66  61  82 S7        29.98R
LITCHFIELD     CLOUDY    64  64 100 E3        29.99F
BUFFALO        MOCLDY    66  59  78 S5        30.01S
MAPLE LAKE     MOCLDY    65  62  89 CALM      30.00F
$$
MNZ037-044-045-052-053-280300-
   East Central Minnesota

CITY           SKY/WX    TMP DP  RH WIND       PRES   REMARKS
PRINCETON      MOCLDY    68  61  77 S6        29.99S
MORA           CLOUDY    64  61  88 CALM      30.00S
CAMBRIDGE      CLOUDY    70  59  68 S5        29.98S
RUSH CITY      CLOUDY    66  61  85 S6        30.00S
MOOSE LAKE     CLOUDY    64  59  82 CALM      29.98R
HINCKLEY       CLOUDY    66  61  82 CALM      29.99S
CLOQUET        MOCLDY    59  52  77 CALM      30.01R
MCGREGOR       CLOUDY    66  61  82 SE5       29.99S
$$
MNZ071>073-080-081-089-090-097-098-280300-
   Southwest Minnesota

CITY           SKY/WX    TMP DP  RH WIND       PRES   REMARKS
MONTEVIDEO     CLOUDY    64  63  94 CALM      29.96F
GRANITE FALLS  CLOUDY    66  64  95 E3        29.96S
CANBY          CLOUDY    71  65  81 SE5       29.95R
MARSHALL       CLOUDY    70  63  78 S16       29.95F
REDWOOD FALLS  CLOUDY    67  64  90 E5        29.95F
OLIVIA         CLOUDY    64  61  88 E6        29.96S
PIPESTONE      CLOUDY    66  64  94 E8        29.98S
WINDOM         CLOUDY    66  61  82 S12       29.98S
WORTHINGTON    CLOUDY    64  61  88 SE8       30.00R
JACKSON        CLOUDY    64  63  94 S10       30.01S
TRACY          CLOUDY    68  64  87 S12       29.97S
SLAYTON        CLOUDY    64  64  97 CALM      30.00S
$$
MNZ065>067-074>077-082>085-091>093-280300-
   South Central Minnesota

CITY           SKY/WX    TMP DP  RH WIND       PRES   REMARKS
MANKATO        CLOUDY    64  59  82 SE9       29.99F
NEW ULM        CLOUDY    64  63  94 S7        29.97S
ST JAMES       CLOUDY    66  63  88 CALM      30.01R
FAIRMONT       CLOUDY    64  57  77 S13       30.01S
GLENCOE        CLOUDY    66  63  91 E5        29.99S
FARIBAULT      CLOUDY    64  61  88 SE7       30.02S
OWATONNA       DRIZZLE   64  61  88 SE7       30.02F
WASECA         CLOUDY    63  59  88 MISG      30.03F
ALBERT LEA     CLOUDY    66  61  82 S6        30.03R
$$
MNZ078>079-086>088-094>096-280300-
   Southeast Minnesota

CITY           SKY/WX    TMP DP  RH WIND       PRES   REMARKS
ROCHESTER      CLOUDY    64  59  83 SE7       30.05F
RED WING       MOCLDY    66  59  77 SE3       30.02S
STANTON        CLOUDY    67  59  75 SE3       30.01R
DODGE CENTER   CLOUDY    63  59  88 SE3       30.05R
WINONA         PTCLDY    70  61  73 SE3       30.05F
AUSTIN         CLOUDY    66  61  82 SE5       30.03S
PRESTON        CLOUDY    65  58  78 SE3       30.07S
$$
ABBREVIATIONS USED IN REMARKS
   TC - TEMPERATURES IN CELSIUS
  WCI - WIND CHILL INDEX
   HX - HEAT INDEX
  VSB - VISIBILITY
$$



USA.gov is the U.S. government's official web portal to all federal, state and local government web resources and services.